This is the latest recevied weather packets stored in our database for station/object N4MGC. If no packets are shown the sender has not sent any weather packets the latest 1 day(s).
| Time | Temp. | Humidity | Pressure | Rain* | Wind** | Luminosity | Snow |
|---|---|---|---|---|---|---|---|
| 1778022625 | 23.33° C | 70% | 1011.5 hPa | 0 mm | 0 m/s | 26 W/m² | - |
| 1778022322 | 23.33° C | 69% | 1011.7 hPa | 0 mm | 0 m/s | 25 W/m² | - |
| 1778022018 | 23.33° C | 67% | 1011.6 hPa | 0 mm | 0 m/s | 57 W/m² | - |
| 1778021715 | 23.33° C | 70% | 1011.5 hPa | 0 mm | 0 m/s | 75 W/m² | - |
| 1778021411 | 23.33° C | 69% | 1011.5 hPa | 0 mm | 0 m/s | 97 W/m² | - |
| 1778021108 | 23.33° C | 69% | 1011.5 hPa | 0 mm | 0 m/s | 51 W/m² | - |
| 1778020805 | 23.33° C | 69% | 1011.5 hPa | 0 mm | 0 m/s | 46 W/m² | - |
| 1778020502 | 23.33° C | 68% | 1011.6 hPa | 0 mm | 0 m/s | 49 W/m² | - |
| 1778020198 | 23.33° C | 68% | 1011.6 hPa | 0 mm | 0 m/s | 65 W/m² | - |
| 1778019895 | 23.33° C | 69% | 1011.4 hPa | 0 mm | 0 m/s | 70 W/m² | - |
| 1778019590 | 23.33° C | 68% | 1011.7 hPa | 0 mm | 0 m/s | 77 W/m² | - |
| 1778019288 | 23.89° C | 68% | 1011.6 hPa | 0 mm | 0 m/s | 103 W/m² | - |
| 1778018985 | 23.89° C | 66% | 1011.5 hPa | 0 mm | 0 m/s | 60 W/m² | - |
| 1778018682 | 23.89° C | 66% | 1011.5 hPa | 0 mm | 0 m/s | 93 W/m² | - |
| 1778018380 | 23.89° C | 65% | 1011.7 hPa | 0 mm | 0 m/s | 100 W/m² | - |
| 1778018078 | 23.89° C | 67% | 1011.5 hPa | 0 mm | 0 m/s | 173 W/m² | - |
| 1778017775 | 23.89° C | 67% | 1011.8 hPa | 0 mm | 0 m/s | 98 W/m² | - |
| 1778017473 | 23.89° C | 68% | 1011.6 hPa | 0 mm | 0 m/s | 83 W/m² | - |
| 1778017170 | 23.89° C | 68% | 1011.6 hPa | 0 mm | 0 m/s | 72 W/m² | - |
| 1778016868 | 24.44° C | 67% | 1011.5 hPa | 0 mm | 0 m/s | 81 W/m² | - |
| 1778016564 | 24.44° C | 66% | 1011.5 hPa | 0 mm | 0 m/s | 141 W/m² | - |
| 1778016261 | 24.44° C | 65% | 1012 hPa | 0 mm | 0 m/s | 148 W/m² | - |
| 1778015957 | 24.44° C | 65% | 1011.7 hPa | 0 mm | 0 m/s | 161 W/m² | - |
| 1778015655 | 24.44° C | 66% | 1011.6 hPa | 0 mm | 0 m/s | 195 W/m² | - |
| 1778015351 | 24.44° C | 66% | 1011.8 hPa | 0 mm | 0 m/s | 177 W/m² | - |
* Rain latest hour (hover to see other rain measurements)
** Current wind speed in m/s (hover to see current wind gust speed)